FW6626 Weather Reports


time (UTC)temp
F
wind
direction
speed
knots
gust
knots
rain 1hr
in
rain 24hr
in
rain mn
in
humidity
%
barometer
mb
20260906173059 76 343 2.6 9.6 0.00 0.01 0.01 63 1014.3
20260906171557 75 25 1.7 8.7 0.00 0.01 0.01 65 1014.4
20260906170055 76 321 2.6 9.6 0.00 0.01 0.01 66 1014.4
20260906164555 76 320 3.5 7.8 0.00 0.01 0.01 65 1014.0
20260906163104 76 352 0.9 5.2 0.00 0.01 0.01 67 1013.8
20260906161558 76 344 1.7 7.0 0.00 0.01 0.01 71 1013.8
20260906160109 75 351 0.0 2.6 0.00 0.01 0.01 72 1013.6
20260906154609 74 12 0.9 3.5 0.00 0.01 0.01 72 1013.6
20260906153115 73 311 0.0 2.6 0.00 0.01 0.01 71 1013.5
20260906151608 73 302 0.9 2.6 0.00 0.01 0.01 70 1013.6
20260906150058 72 0 0.0 3.5 0.00 0.01 0.01 68 1013.6
20260906144601 72 290 2.6 6.1 0.00 0.01 0.01 68 1013.4
20260906143059 72 319 0.9 6.1 0.00 0.01 0.01 73 1013.4
20260906141602 72 300 1.7 7.8 0.00 0.01 0.01 74 1013.3
20260906140109 72 308 4.3 9.6 0.00 0.01 0.01 69 1013.0
20260906134614 72 283 4.3 7.0 0.00 0.01 0.01 74 1012.8
20260906133109 73 311 2.6 4.3 0.00 0.01 0.01 67 1012.4
20260906131606 73 360 0.0 3.5 0.00 0.01 0.01 68 1012.2
20260906130103 72 13 1.7 4.3 0.00 0.01 0.01 69 1012.1
20260906124603 72 22 2.6 5.2 0.00 0.01 0.01 72 1012.0
20260906123100 72 23 1.7 3.5 0.00 0.01 0.01 72 1012.0
20260906121553 72 24 2.6 6.1 0.00 0.01 0.01 69 1012.1
20260906120125 71 22 2.6 4.3 0.01 0.01 0.01 75 1012.2
20260906114555 70 18 1.7 4.3 0.01 0.01 0.01 75 1012.3
20260906113104 69 360 0.9 3.5 0.01 0.01 0.01 82 1012.2
20260906111607 71 74 0.9 3.5 0.01 0.01 0.01 86 1012.4
20260906110103 72 126 0.0 2.6 0.00 0.00 0.00 87 1012.4
20260906104557 72 140 0.0 1.7 0.00 0.00 0.00 87 1012.4
20260906103111 72 0 0.9 2.6 0.00 0.00 0.00 87 1012.5
20260906101601 72 169 0.9 2.6 0.00 0.00 0.00 87 1012.4
20260906094555 72 0 0.0 0.9 0.00 0.00 0.00 87 1012.3
20260906093100 72 0 0.0 1.7 0.00 0.00 0.00 87 1012.8
20260906091600 72 182 0.0 1.7 0.00 0.00 0.00 87 1012.6
20260906090116 71 0 0.0 0.9 0.00 0.00 0.00 86 1012.5
20260906084558 72 0 0.0 2.6 0.00 0.00 0.00 86 1012.8
20260906083107 72 182 1.7 4.3 0.00 0.00 0.00 85 1013.1
20260906081601 72 254 1.7 2.6 0.00 0.00 0.00 84 1013.1
20260906080122 72 254 0.9 2.6 0.00 0.00 0.00 83 1013.1
20260906074608 73 255 0.9 3.5 0.00 0.00 0.00 83 1013.0
20260906073114 72 0 0.0 0.0 0.00 0.00 0.00 84 1013.0
20260906071602 73 0 0.0 0.0 0.00 0.00 0.00 84 1012.9
20260906070057 72 263 0.9 2.6 0.00 0.00 0.00 84 1013.0
20260906064607 72 0 0.0 0.0 0.00 0.00 0.00 83 1013.1
20260906063057 72 0 0.0 2.6 0.00 0.00 0.00 83 1013.1
20260906061605 73 0 0.0 1.7 0.00 0.00 0.00 82 1013.0
20260906060104 73 266 0.9 3.5 0.00 0.00 0.00 81 1012.8
20260906054603 73 263 0.9 5.2 0.00 0.00 0.00 80 1012.9
20260906053057 73 286 1.7 5.2 0.00 0.00 0.00 79 1013.0
20260906051607 73 269 0.9 5.2 0.00 0.00 0.00 79 1013.0
20260906050110 74 272 2.6 5.2 0.00 0.00 0.00 76 1013.0
20260906044559 74 273 1.7 5.2 0.00 0.00 0.00 75 1013.0
20260906043104 73 271 1.7 2.6 0.00 0.00 0.00 75 1013.0
20260906041605 73 269 0.9 1.7 0.00 0.00 0.00 76 1013.0
20260906034639 73 271 0.9 1.7 0.00 0.00 0.00 76 1012.9
20260906033056 73 0 0.0 0.0 0.00 0.00 0.00 74 1012.7
20260906031554 74 0 0.0 2.6 0.00 0.00 0.00 73 1012.8
20260906030056 74 0 0.0 2.6 0.00 0.00 0.00 72 1012.7
20260906024602 74 277 0.0 2.6 0.00 0.00 0.00 72 1012.7
20260906023058 73 271 0.9 3.5 0.00 0.00 0.00 72 1012.6
20260906021604 74 0 0.0 3.5 0.00 0.00 0.00 77 1012.6
20260906020100 74 250 0.9 5.2 0.00 0.00 0.00 76 1012.7
20260906014554 74 360 1.7 7.0 0.00 0.00 0.00 77 1012.7
20260906013106 75 259 3.5 7.8 0.00 0.00 0.00 75 1012.7
20260906011556 76 256 4.3 8.7 0.00 0.00 0.00 70 1012.8
20260906010058 79 262 4.3 7.8 0.00 0.00 0.00 67 1012.7
20260906004603 78 263 4.3 7.8 0.00 0.00 0.00 68 1012.5
20260906003059 79 360 3.5 8.7 0.00 0.00 0.00 67 1012.6
20260906001555 80 254 3.5 8.7 0.00 0.00 0.00 66 1012.4
20260906000106 80 360 3.5 8.7 0.00 0.00 0.00 64 1012.5
20260905234620 79 244 5.2 12.2 0.00 0.00 0.00 67 1012.6
20260905233102 79 360 6.1 10.4 0.00 0.00 0.00 65 1012.5
20260905231555 79 249 5.2 10.4 0.00 0.00 0.00 63 1012.5
20260905230104 79 257 6.1 10.4 0.00 0.00 0.00 66 1012.5
20260905224553 79 238 5.2 10.4 0.00 0.00 0.00 66 1012.7
20260905223057 80 234 6.1 10.4 0.00 0.00 0.00 64 1012.8
20260905221601 80 300 5.2 12.2 0.00 0.00 0.00 62 1012.9
20260905214605 80 360 5.2 10.4 0.00 0.00 0.00 54 1013.2
20260905213101 80 360 5.2 9.6 0.00 0.00 0.00 62 1013.3
20260905211556 79 270 6.1 10.4 0.00 0.00 0.00 66 1013.5
20260905210105 79 360 4.3 9.6 0.00 0.00 0.00 62 1013.5
20260905204555 80 248 4.3 9.6 0.00 0.00 0.00 65 1013.8
20260905203111 78 250 6.1 9.6 0.00 0.00 0.00 67 1013.9
20260905201557 77 248 4.3 8.7 0.00 0.00 0.00 69 1014.0
20260905194603 76 360 4.3 9.6 0.00 0.00 0.00 69 1014.1
20260905193102 76 261 4.3 8.7 0.00 0.00 0.00 69 1014.3
20260905191555 76 265 3.5 8.7 0.00 0.00 0.00 69 1014.5
20260905190103 76 248 5.2 7.8 0.00 0.00 0.00 67 1014.5
20260905184606 76 257 3.5 8.7 0.00 0.00 0.00 67 1014.6
20260905183107 76 360 3.5 8.7 0.00 0.00 0.00 67 1014.9
20260905181555 74 250 5.2 10.4 0.00 0.00 0.00 70 1014.9
20260905180100 74 240 4.3 7.0 0.00 0.00 0.00 68 1014.9
20260905174606 75 254 2.6 7.0 0.00 0.00 0.00 65 1014.7